| time (UTC) | temp C | wind direction | speed KPH | gust KPH | rain 1hr cm | rain 24hr cm | rain mn cm | humidity % | barometer mb |
| 20260906033014 | 20 | 147 | 3.2 | 6.4 | 0.00 | 0.00 | 0.00 | 94 | 1019.2 |
| 20260906031507 | 20 | 138 | 1.6 | 4.8 | 0.00 | 0.00 | 0.00 | 94 | 1019.2 |
| 20260906030015 | 19 | 125 | 1.6 | 3.2 | 0.00 | 0.00 | 0.00 | 93 | 1019.3 |
| 20260906024514 | 19 | 125 | 1.6 | 6.4 | 0.00 | 0.00 | 0.00 | 93 | 1019.3 |
| 20260906023015 | 20 | 126 | 3.2 | 6.4 | 0.00 | 0.00 | 0.00 | 93 | 1019.3 |
| 20260906021516 | 20 | 92 | 3.2 | 6.4 | 0.00 | 0.00 | 0.00 | 93 | 1019.3 |
| 20260906020014 | 20 | 107 | 4.8 | 6.4 | 0.00 | 0.00 | 0.00 | 92 | 1019.3 |
| 20260906014535 | 20 | 222 | 1.6 | 3.2 | 0.00 | 0.00 | 0.00 | 93 | 1019.5 |
| 20260906013022 | 20 | 264 | 1.6 | 3.2 | 0.00 | 0.00 | 0.00 | 92 | 1019.5 |
| 20260906011518 | 20 | 264 | 0.0 | 1.6 | 0.00 | 0.00 | 0.00 | 92 | 1019.8 |
| 20260906010036 | 20 | 264 | 1.6 | 3.2 | 0.00 | 0.00 | 0.00 | 92 | 1019.9 |
| 20260906004516 | 20 | 264 | 1.6 | 3.2 | 0.00 | 0.00 | 0.00 | 92 | 1020.0 |
| 20260906003018 | 20 | 264 | 0.0 | 0.0 | 0.00 | 0.00 | 0.00 | 91 | 1020.0 |
| 20260906001520 | 20 | 264 | 0.0 | 0.0 | 0.00 | 0.00 | 0.00 | 91 | 1020.0 |
| 20260906000018 | 20 | 264 | 0.0 | 0.0 | 0.00 | 0.00 | 0.00 | 91 | 1020.0 |
| 20260905234513 | 20 | 264 | 0.0 | 0.0 | 0.00 | 0.00 | 0.00 | 90 | 1020.0 |
| 20260905233018 | 21 | 264 | 1.6 | 3.2 | 0.00 | 0.00 | 0.00 | 89 | 1020.0 |
| 20260905231536 | 21 | 264 | 3.2 | 4.8 | 0.00 | 0.00 | 0.00 | 88 | 1020.0 |
| 20260905230017 | 21 | 264 | 1.6 | 4.8 | 0.00 | 0.00 | 0.00 | 87 | 1019.8 |
| 20260905224524 | 21 | 264 | 1.6 | 4.8 | 0.00 | 0.00 | 0.00 | 86 | 1019.8 |
| 20260905223029 | 21 | 264 | 3.2 | 4.8 | 0.00 | 0.00 | 0.00 | 85 | 1019.8 |
| 20260905221526 | 21 | 268 | 3.2 | 6.4 | 0.00 | 0.00 | 0.00 | 84 | 1019.7 |
| 20260905220027 | 21 | 264 | 3.2 | 6.4 | 0.00 | 0.00 | 0.00 | 82 | 1019.8 |
| 20260905214523 | 22 | 284 | 4.8 | 4.8 | 0.00 | 0.00 | 0.00 | 81 | 1019.9 |
| 20260905213019 | 22 | 290 | 3.2 | 3.2 | 0.00 | 0.00 | 0.00 | 81 | 1019.8 |
| 20260905211536 | 22 | 290 | 3.2 | 4.8 | 0.00 | 0.00 | 0.00 | 80 | 1019.7 |
| 20260905210027 | 22 | 290 | 3.2 | 4.8 | 0.00 | 0.00 | 0.00 | 80 | 1019.6 |
| 20260905204528 | 22 | 290 | 0.0 | 3.2 | 0.00 | 0.00 | 0.00 | 81 | 1019.4 |
| 20260905203024 | 22 | 290 | 3.2 | 4.8 | 0.00 | 0.00 | 0.00 | 81 | 1019.2 |
| 20260905201526 | 22 | 290 | 3.2 | 4.8 | 0.00 | 0.00 | 0.00 | 82 | 1019.1 |
| 20260905200024 | 22 | 250 | 1.6 | 6.4 | 0.00 | 0.00 | 0.00 | 83 | 1019.0 |
| 20260905194528 | 22 | 217 | 0.0 | 3.2 | 0.00 | 0.00 | 0.00 | 84 | 1018.8 |
| 20260905193015 | 22 | 217 | 1.6 | 4.8 | 0.00 | 0.00 | 0.00 | 84 | 1018.4 |
| 20260905191525 | 22 | 217 | 1.6 | 3.2 | 0.00 | 0.00 | 0.00 | 84 | 1018.5 |
| 20260905190023 | 23 | 217 | 0.0 | 4.8 | 0.00 | 0.00 | 0.00 | 84 | 1018.4 |
| 20260905184531 | 23 | 214 | 1.6 | 4.8 | 0.00 | 0.00 | 0.00 | 82 | 1018.4 |
| 20260905183036 | 24 | 217 | 3.2 | 6.4 | 0.00 | 0.00 | 0.00 | 81 | 1018.5 |
| 20260905181511 | 24 | 185 | 3.2 | 8.0 | 0.00 | 0.00 | 0.00 | 80 | 1018.5 |
| 20260905180018 | 25 | 200 | 4.8 | 8.0 | 0.00 | 0.00 | 0.00 | 78 | 1018.4 |
| 20260905174527 | 26 | 199 | 4.8 | 11.3 | 0.00 | 0.00 | 0.00 | 75 | 1018.2 |
| 20260905173026 | 26 | 194 | 6.4 | 16.1 | 0.00 | 0.00 | 0.00 | 72 | 1018.2 |
| 20260905171530 | 26 | 175 | 6.4 | 16.1 | 0.00 | 0.00 | 0.00 | 70 | 1018.2 |
| 20260905170016 | 27 | 184 | 9.7 | 14.5 | 0.00 | 0.00 | 0.00 | 66 | 1017.9 |
| 20260905164523 | 27 | 182 | 4.8 | 12.9 | 0.00 | 0.00 | 0.00 | 66 | 1017.8 |
| 20260905163028 | 27 | 205 | 6.4 | 16.1 | 0.00 | 0.00 | 0.00 | 66 | 1017.8 |
| 20260905161531 | 27 | 169 | 8.0 | 16.1 | 0.00 | 0.00 | 0.00 | 65 | 1017.7 |
| 20260905160014 | 27 | 184 | 9.7 | 16.1 | 0.00 | 0.00 | 0.00 | 65 | 1017.7 |
| 20260905154519 | 27 | 156 | 4.8 | 14.5 | 0.00 | 0.00 | 0.00 | 71 | 1017.8 |
| 20260905153028 | 26 | 132 | 9.7 | 19.3 | 0.00 | 0.00 | 0.00 | 75 | 1017.8 |
| 20260905151536 | 26 | 162 | 11.3 | 17.7 | 0.00 | 0.00 | 0.00 | 71 | 1017.8 |
| 20260905150028 | 27 | 107 | 8.0 | 14.5 | 0.00 | 0.00 | 0.00 | 66 | 1017.9 |
| 20260905144527 | 27 | 123 | 8.0 | 16.1 | 0.00 | 0.00 | 0.00 | 69 | 1017.9 |
| 20260905143026 | 27 | 124 | 4.8 | 16.1 | 0.00 | 0.00 | 0.00 | 68 | 1018.0 |
| 20260905141532 | 29 | 150 | 12.9 | 17.7 | 0.00 | 0.00 | 0.00 | 57 | 1017.9 |
| 20260905140029 | 28 | 188 | 3.2 | 11.3 | 0.00 | 0.00 | 0.00 | 57 | 1017.8 |
| 20260905134531 | 30 | 181 | 6.4 | 12.9 | 0.00 | 0.03 | 0.00 | 54 | 1017.8 |
| 20260905133020 | 29 | 239 | 6.4 | 9.7 | 0.00 | 0.03 | 0.00 | 56 | 1017.5 |
| 20260905131528 | 28 | 201 | 4.8 | 11.3 | 0.00 | 0.03 | 0.00 | 57 | 1017.7 |
| 20260905130038 | 28 | 192 | 4.8 | 9.7 | 0.00 | 0.03 | 0.00 | 58 | 1017.7 |
| 20260905124531 | 28 | 199 | 6.4 | 9.7 | 0.00 | 0.03 | 0.00 | 62 | 1017.6 |
| 20260905123017 | 27 | 192 | 4.8 | 9.7 | 0.00 | 0.03 | 0.00 | 62 | 1017.7 |
| 20260905121524 | 27 | 231 | 4.8 | 9.7 | 0.00 | 0.03 | 0.00 | 64 | 1017.7 |
| 20260905120031 | 27 | 239 | 8.0 | 11.3 | 0.00 | 0.03 | 0.00 | 64 | 1017.8 |
| 20260905114510 | 27 | 215 | 4.8 | 11.3 | 0.00 | 0.03 | 0.00 | 65 | 1017.8 |
| 20260905113017 | 27 | 200 | 4.8 | 11.3 | 0.00 | 0.03 | 0.00 | 66 | 1017.9 |
| 20260905111532 | 26 | 188 | 3.2 | 9.7 | 0.00 | 0.03 | 0.00 | 68 | 1018.0 |
| 20260905110030 | 26 | 254 | 4.8 | 11.3 | 0.00 | 0.03 | 0.00 | 68 | 1018.1 |
| 20260905104531 | 27 | 225 | 4.8 | 8.0 | 0.00 | 0.03 | 0.00 | 65 | 1018.2 |
| 20260905103015 | 27 | 225 | 1.6 | 4.8 | 0.00 | 0.03 | 0.00 | 67 | 1018.3 |
| 20260905101520 | 26 | 225 | 0.0 | 3.2 | 0.00 | 0.03 | 0.00 | 73 | 1018.3 |
| 20260905100029 | 25 | 225 | 3.2 | 6.4 | 0.00 | 0.03 | 0.00 | 75 | 1018.4 |
| 20260905094532 | 25 | 208 | 4.8 | 11.3 | 0.00 | 0.03 | 0.00 | 74 | 1018.3 |
| 20260905093010 | 26 | 234 | 4.8 | 12.9 | 0.00 | 0.03 | 0.00 | 71 | 1017.9 |
| 20260905091518 | 27 | 200 | 3.2 | 6.4 | 0.00 | 0.03 | 0.00 | 67 | 1017.7 |
| 20260905090027 | 26 | 266 | 3.2 | 4.8 | 0.00 | 0.03 | 0.00 | 75 | 1017.5 |
| 20260905084528 | 25 | 295 | 0.0 | 4.8 | 0.00 | 0.03 | 0.00 | 81 | 1017.5 |
| 20260905083030 | 23 | 226 | 1.6 | 4.8 | 0.00 | 0.03 | 0.00 | 84 | 1017.4 |
| 20260905081514 | 23 | 350 | 0.0 | 3.2 | 0.00 | 0.03 | 0.00 | 85 | 1017.4 |
| 20260905080020 | 23 | 360 | 0.0 | 3.2 | 0.00 | 0.03 | 0.00 | 86 | 1017.6 |
| 20260905074528 | 22 | 360 | 0.0 | 6.4 | 0.00 | 0.03 | 0.00 | 89 | 1017.4 |
| 20260905073032 | 20 | 360 | 3.2 | 6.4 | 0.00 | 0.03 | 0.00 | 92 | 1017.5 |
| 20260905071532 | 20 | 43 | 6.4 | 9.7 | 0.00 | 0.03 | 0.00 | 94 | 1017.6 |
| 20260905070018 | 20 | 73 | 6.4 | 14.5 | 0.00 | 0.03 | 0.00 | 94 | 1017.6 |
| 20260905064526 | 20 | 87 | 8.0 | 14.5 | 0.00 | 0.03 | 0.00 | 93 | 1017.5 |
| 20260905063030 | 20 | 70 | 4.8 | 12.9 | 0.00 | 0.03 | 0.00 | 94 | 1017.5 |
| 20260905061538 | 20 | 43 | 3.2 | 8.0 | 0.00 | 0.03 | 0.00 | 94 | 1017.5 |
| 20260905060020 | 19 | 55 | 4.8 | 11.3 | 0.00 | 0.03 | 0.00 | 94 | 1017.5 |
| 20260905054532 | 19 | 89 | 4.8 | 11.3 | 0.00 | 0.03 | 0.00 | 94 | 1017.3 |
| 20260905053028 | 19 | 68 | 4.8 | 12.9 | 0.00 | 0.00 | 0.00 | 93 | 1017.3 |
| 20260905051532 | 18 | 71 | 4.8 | 11.3 | 0.00 | 0.00 | 0.00 | 93 | 1017.3 |
| 20260905050033 | 19 | 67 | 6.4 | 8.0 | 0.00 | 0.00 | 0.00 | 93 | 1017.2 |
| 20260905044527 | 19 | 67 | 3.2 | 8.0 | 0.00 | 0.00 | 0.00 | 93 | 1017.2 |
| 20260905043031 | 19 | 67 | 1.6 | 3.2 | 0.00 | 0.00 | 0.00 | 93 | 1017.2 |
| 20260905041546 | 18 | 67 | 1.6 | 4.8 | 0.00 | 0.00 | 0.00 | 93 | 1017.3 |
| 20260905040032 | 18 | 66 | 4.8 | 11.3 | 0.00 | 0.00 | 0.00 | 93 | 1017.6 |
| 20260905034541 | 18 | 84 | 9.7 | 12.9 | 0.00 | 0.00 | 0.00 | 92 | 1017.7 |